| time (UTC) | temp F | wind direction | speed MPH | gust MPH | rain 1hr in | rain 24hr in | rain mn in | humidity % | barometer mb |
| 20260831204019 | 85 | 222 | 10.0 | 12.0 | 0.00 | 0.12 | 0.00 | 70 | 1013.1 |
| 20260831203534 | 84 | 219 | 8.0 | 13.0 | 0.00 | 0.12 | 0.00 | 73 | 1013.2 |
| 20260831203043 | 85 | 213 | 7.0 | 13.0 | 0.00 | 0.12 | 0.00 | 71 | 1013.3 |
| 20260831202536 | 85 | 225 | 7.0 | 10.0 | 0.00 | 0.12 | 0.00 | 73 | 1013.3 |
| 20260831202021 | 84 | 221 | 7.0 | 12.0 | 0.00 | 0.12 | 0.00 | 72 | 1013.3 |
| 20260831201557 | 84 | 227 | 9.0 | 11.0 | 0.00 | 0.12 | 0.00 | 71 | 1013.3 |
| 20260831201032 | 84 | 248 | 7.0 | 13.0 | 0.00 | 0.12 | 0.00 | 73 | 1013.3 |
| 20260831200517 | 84 | 236 | 6.0 | 10.0 | 0.00 | 0.12 | 0.00 | 73 | 1013.2 |
| 20260831200024 | 84 | 231 | 7.0 | 10.0 | 0.00 | 0.16 | 0.00 | 71 | 1013.1 |
| 20260831195519 | 84 | 248 | 6.0 | 12.0 | 0.00 | 0.16 | 0.00 | 72 | 1013.1 |
| 20260831195032 | 84 | 232 | 6.0 | 15.0 | 0.00 | 0.16 | 0.00 | 71 | 1013.0 |
| 20260831194531 | 85 | 246 | 10.0 | 15.0 | 0.00 | 0.16 | 0.00 | 70 | 1013.0 |
| 20260831194036 | 86 | 200 | 10.0 | 14.0 | 0.00 | 0.16 | 0.00 | 70 | 1013.1 |
| 20260831193530 | 86 | 232 | 7.0 | 16.0 | 0.00 | 0.16 | 0.00 | 72 | 1013.2 |
| 20260831193021 | 85 | 190 | 9.0 | 16.0 | 0.00 | 0.16 | 0.00 | 71 | 1013.1 |
| 20260831192535 | 85 | 235 | 8.0 | 15.0 | 0.00 | 0.16 | 0.00 | 72 | 1013.3 |
| 20260831192037 | 84 | 218 | 9.0 | 15.0 | 0.00 | 0.16 | 0.00 | 73 | 1013.2 |
| 20260831191534 | 84 | 205 | 9.0 | 11.0 | 0.00 | 0.16 | 0.00 | 73 | 1013.0 |
| 20260831191030 | 84 | 221 | 6.0 | 11.0 | 0.00 | 0.16 | 0.00 | 73 | 1013.0 |
| 20260831190523 | 84 | 227 | 8.0 | 11.0 | 0.00 | 0.16 | 0.00 | 72 | 1012.9 |
| 20260831190036 | 84 | 221 | 6.0 | 10.0 | 0.00 | 0.24 | 0.00 | 72 | 1012.9 |
| 20260831185523 | 84 | 217 | 6.0 | 10.0 | 0.00 | 0.24 | 0.00 | 72 | 1012.8 |
| 20260831185034 | 84 | 221 | 5.0 | 8.0 | 0.00 | 0.24 | 0.00 | 72 | 1012.5 |
| 20260831184520 | 84 | 225 | 3.0 | 10.0 | 0.00 | 0.24 | 0.00 | 72 | 1012.5 |
| 20260831184034 | 84 | 242 | 7.0 | 12.0 | 0.00 | 0.24 | 0.00 | 71 | 1012.7 |
| 20260831183530 | 84 | 212 | 8.0 | 12.0 | 0.00 | 0.24 | 0.00 | 70 | 1012.9 |
| 20260831183030 | 84 | 215 | 6.0 | 10.0 | 0.00 | 0.24 | 0.00 | 71 | 1013.0 |
| 20260831182541 | 84 | 224 | 7.0 | 12.0 | 0.00 | 0.24 | 0.00 | 69 | 1013.0 |
| 20260831182035 | 84 | 250 | 7.0 | 12.0 | 0.00 | 0.24 | 0.00 | 69 | 1013.1 |
| 20260831181536 | 85 | 225 | 5.0 | 10.0 | 0.00 | 0.24 | 0.00 | 70 | 1013.1 |
| 20260831181031 | 85 | 241 | 6.0 | 12.0 | 0.00 | 0.24 | 0.00 | 70 | 1013.3 |
| 20260831180536 | 85 | 219 | 9.0 | 12.0 | 0.00 | 0.24 | 0.00 | 69 | 1013.4 |
| 20260831180022 | 85 | 219 | 9.0 | 14.0 | 0.00 | 0.24 | 0.00 | 67 | 1013.3 |
| 20260831175534 | 86 | 246 | 8.0 | 14.0 | 0.00 | 0.24 | 0.00 | 66 | 1013.3 |
| 20260831175036 | 86 | 230 | 10.0 | 15.0 | 0.00 | 0.24 | 0.00 | 67 | 1013.3 |
| 20260831174524 | 86 | 232 | 10.0 | 15.0 | 0.00 | 0.24 | 0.00 | 67 | 1013.3 |
| 20260831174020 | 86 | 223 | 10.0 | 20.0 | 0.00 | 0.24 | 0.00 | 66 | 1013.3 |
| 20260831173535 | 86 | 201 | 11.0 | 20.0 | 0.00 | 0.24 | 0.00 | 66 | 1013.4 |
| 20260831173037 | 85 | 246 | 13.0 | 20.0 | 0.00 | 0.24 | 0.00 | 67 | 1013.3 |
| 20260831172536 | 86 | 196 | 8.0 | 17.0 | 0.00 | 0.24 | 0.00 | 67 | 1013.4 |
| 20260831172031 | 85 | 240 | 11.0 | 19.0 | 0.00 | 0.24 | 0.00 | 68 | 1013.5 |
| 20260831171543 | 85 | 232 | 7.0 | 16.0 | 0.00 | 0.24 | 0.00 | 68 | 1013.5 |
| 20260831171036 | 85 | 238 | 9.0 | 16.0 | 0.00 | 0.24 | 0.00 | 67 | 1013.4 |
| 20260831170528 | 85 | 241 | 8.0 | 16.0 | 0.00 | 0.24 | 0.00 | 69 | 1013.4 |
| 20260831170029 | 84 | 240 | 11.0 | 16.0 | 0.00 | 0.24 | 0.00 | 69 | 1013.3 |
| 20260831165526 | 84 | 196 | 11.0 | 14.0 | 0.00 | 0.24 | 0.00 | 68 | 1013.3 |
| 20260831165042 | 84 | 209 | 10.0 | 16.0 | 0.00 | 0.24 | 0.00 | 68 | 1013.4 |
| 20260831164520 | 84 | 209 | 9.0 | 16.0 | 0.00 | 0.24 | 0.00 | 69 | 1013.4 |
| 20260831164033 | 84 | 228 | 11.0 | 15.0 | 0.00 | 0.24 | 0.00 | 69 | 1013.5 |
| 20260831163531 | 83 | 252 | 9.0 | 16.0 | 0.00 | 0.24 | 0.00 | 69 | 1013.7 |
| 20260831163030 | 84 | 213 | 10.0 | 15.0 | 0.00 | 0.24 | 0.00 | 70 | 1013.5 |
| 20260831162525 | 83 | 219 | 10.0 | 15.0 | 0.00 | 0.24 | 0.00 | 70 | 1013.7 |
| 20260831162019 | 84 | 224 | 8.0 | 16.0 | 0.00 | 0.24 | 0.00 | 68 | 1013.5 |
| 20260831161517 | 83 | 249 | 9.0 | 16.0 | 0.00 | 0.24 | 0.00 | 71 | 1013.4 |
| 20260831161029 | 82 | 214 | 7.0 | 14.0 | 0.00 | 0.24 | 0.00 | 70 | 1013.6 |
| 20260831160536 | 82 | 254 | 9.0 | 15.0 | 0.00 | 0.24 | 0.00 | 71 | 1013.4 |
| 20260831160051 | 82 | 238 | 8.0 | 15.0 | 0.00 | 0.24 | 0.00 | 72 | 1013.5 |
| 20260831155527 | 82 | 221 | 8.0 | 17.0 | 0.00 | 0.24 | 0.00 | 72 | 1013.4 |
| 20260831155021 | 81 | 229 | 11.0 | 17.0 | 0.00 | 0.24 | 0.00 | 72 | 1013.2 |
| 20260831154519 | 81 | 223 | 10.0 | 12.0 | 0.00 | 0.24 | 0.00 | 73 | 1013.1 |
| 20260831154049 | 81 | 221 | 9.0 | 14.0 | 0.00 | 0.24 | 0.00 | 73 | 1013.2 |
| 20260831153525 | 81 | 229 | 8.0 | 14.0 | 0.00 | 0.24 | 0.00 | 73 | 1013.2 |
| 20260831153026 | 81 | 237 | 7.0 | 11.0 | 0.00 | 0.24 | 0.00 | 74 | 1013.1 |
| 20260831152541 | 80 | 223 | 7.0 | 13.0 | 0.00 | 0.24 | 0.00 | 74 | 1013.0 |
| 20260831152031 | 80 | 236 | 9.0 | 13.0 | 0.00 | 0.24 | 0.00 | 75 | 1013.0 |
| 20260831151522 | 79 | 204 | 10.0 | 17.0 | 0.00 | 0.24 | 0.00 | 75 | 1012.8 |
| 20260831151017 | 78 | 211 | 8.0 | 14.0 | 0.00 | 0.24 | 0.00 | 76 | 1012.9 |
| 20260831150552 | 78 | 214 | 10.0 | 16.0 | 0.00 | 0.24 | 0.00 | 76 | 1012.8 |
| 20260831150021 | 78 | 234 | 8.0 | 18.0 | 0.00 | 0.24 | 0.00 | 76 | 1012.8 |
| 20260831145532 | 78 | 211 | 9.0 | 18.0 | 0.00 | 0.24 | 0.00 | 75 | 1012.8 |
| 20260831145018 | 78 | 209 | 8.0 | 14.0 | 0.00 | 0.24 | 0.00 | 76 | 1012.7 |
| 20260831144538 | 77 | 203 | 9.0 | 14.0 | 0.00 | 0.24 | 0.00 | 76 | 1012.7 |
| 20260831144031 | 77 | 222 | 9.0 | 15.0 | 0.00 | 0.24 | 0.00 | 76 | 1012.8 |
| 20260831143526 | 77 | 189 | 11.0 | 18.0 | 0.00 | 0.24 | 0.00 | 76 | 1012.9 |
| 20260831143033 | 77 | 200 | 10.0 | 18.0 | 0.00 | 0.24 | 0.00 | 76 | 1012.7 |
| 20260831142518 | 77 | 181 | 10.0 | 17.0 | 0.00 | 0.24 | 0.00 | 76 | 1012.8 |
| 20260831142033 | 77 | 209 | 10.0 | 15.0 | 0.00 | 0.24 | 0.00 | 78 | 1012.7 |
| 20260831141545 | 76 | 213 | 11.0 | 14.0 | 0.00 | 0.24 | 0.00 | 78 | 1012.7 |
| 20260831141020 | 75 | 224 | 9.0 | 13.0 | 0.00 | 0.24 | 0.00 | 78 | 1012.7 |
| 20260831140535 | 75 | 209 | 7.0 | 12.0 | 0.00 | 0.24 | 0.00 | 79 | 1012.8 |
| 20260831140032 | 75 | 213 | 6.0 | 10.0 | 0.00 | 0.24 | 0.00 | 79 | 1012.8 |
| 20260831135517 | 75 | 247 | 7.0 | 14.0 | 0.00 | 0.24 | 0.00 | 78 | 1012.8 |
| 20260831135033 | 75 | 227 | 7.0 | 12.0 | 0.00 | 0.24 | 0.00 | 78 | 1012.7 |
| 20260831134553 | 75 | 221 | 8.0 | 14.0 | 0.00 | 0.24 | 0.00 | 78 | 1012.7 |
| 20260831134020 | 75 | 202 | 9.0 | 14.0 | 0.00 | 0.24 | 0.00 | 77 | 1012.7 |
| 20260831133532 | 75 | 209 | 9.0 | 16.0 | 0.00 | 0.24 | 0.00 | 76 | 1012.7 |
| 20260831133030 | 75 | 198 | 6.0 | 10.0 | 0.00 | 0.24 | 0.00 | 76 | 1012.6 |
| 20260831132527 | 76 | 213 | 7.0 | 14.0 | 0.00 | 0.24 | 0.00 | 77 | 1012.6 |
| 20260831132017 | 75 | 231 | 8.0 | 14.0 | 0.00 | 0.24 | 0.00 | 77 | 1012.4 |
| 20260831131557 | 75 | 202 | 6.0 | 11.0 | 0.00 | 0.24 | 0.00 | 77 | 1012.6 |
| 20260831131047 | 75 | 213 | 7.0 | 10.0 | 0.00 | 0.24 | 0.00 | 76 | 1012.5 |
| 20260831130521 | 75 | 240 | 7.0 | 14.0 | 0.00 | 0.24 | 0.00 | 76 | 1012.5 |
| 20260831130031 | 75 | 210 | 8.0 | 14.0 | 0.00 | 0.24 | 0.00 | 76 | 1012.5 |
| 20260831125525 | 75 | 196 | 7.0 | 11.0 | 0.00 | 0.24 | 0.00 | 77 | 1012.4 |
| 20260831125019 | 74 | 234 | 7.0 | 15.0 | 0.00 | 0.24 | 0.00 | 77 | 1012.5 |
| 20260831124553 | 74 | 205 | 9.0 | 15.0 | 0.00 | 0.24 | 0.00 | 78 | 1012.5 |
| 20260831124025 | 74 | 178 | 7.0 | 10.0 | 0.00 | 0.24 | 0.00 | 78 | 1012.5 |
| 20260831123520 | 73 | 184 | 6.0 | 9.0 | 0.00 | 0.24 | 0.00 | 79 | 1012.3 |
| 20260831123029 | 73 | 198 | 5.0 | 10.0 | 0.00 | 0.24 | 0.00 | 79 | 1012.4 |
| 20260831122526 | 73 | 206 | 4.0 | 10.0 | 0.00 | 0.24 | 0.00 | 79 | 1012.4 |
| 20260831122020 | 73 | 213 | 5.0 | 9.0 | 0.00 | 0.24 | 0.00 | 79 | 1012.3 |
| 20260831121535 | 73 | 191 | 6.0 | 9.0 | 0.00 | 0.24 | 0.00 | 79 | 1012.3 |
| 20260831121032 | 73 | 211 | 6.0 | 10.0 | 0.00 | 0.24 | 0.00 | 78 | 1012.3 |
| 20260831120538 | 73 | 211 | 6.0 | 11.0 | 0.00 | 0.24 | 0.00 | 78 | 1012.3 |
| 20260831120036 | 73 | 222 | 8.0 | 11.0 | 0.00 | 0.24 | 0.00 | 78 | 1012.3 |
| 20260831115553 | 73 | 218 | 5.0 | 9.0 | 0.00 | 0.24 | 0.00 | 78 | 1012.3 |
| 20260831115053 | 73 | 213 | 6.0 | 11.0 | 0.00 | 0.24 | 0.00 | 78 | 1012.3 |
| 20260831114533 | 73 | 227 | 6.0 | 11.0 | 0.00 | 0.24 | 0.00 | 78 | 1012.3 |
| 20260831114018 | 73 | 216 | 6.0 | 11.0 | 0.00 | 0.24 | 0.00 | 78 | 1012.2 |
| 20260831113534 | 73 | 217 | 7.0 | 11.0 | 0.00 | 0.24 | 0.00 | 78 | 1012.2 |
| 20260831113051 | 73 | 209 | 8.0 | 11.0 | 0.00 | 0.24 | 0.00 | 78 | 1012.0 |
| 20260831112525 | 73 | 219 | 8.0 | 11.0 | 0.00 | 0.24 | 0.00 | 78 | 1012.2 |
| 20260831112035 | 73 | 215 | 6.0 | 11.0 | 0.00 | 0.24 | 0.00 | 78 | 1012.2 |
| 20260831111535 | 73 | 217 | 6.0 | 11.0 | 0.00 | 0.24 | 0.00 | 78 | 1012.1 |
| 20260831111033 | 73 | 216 | 7.0 | 11.0 | 0.00 | 0.24 | 0.00 | 78 | 1012.1 |
| 20260831110520 | 73 | 224 | 8.0 | 10.0 | 0.00 | 0.24 | 0.00 | 79 | 1012.2 |
| 20260831110029 | 73 | 212 | 7.0 | 10.0 | 0.00 | 0.24 | 0.00 | 79 | 1012.2 |
| 20260831105538 | 73 | 217 | 6.0 | 9.0 | 0.00 | 0.24 | 0.00 | 79 | 1012.1 |
| 20260831105033 | 73 | 209 | 6.0 | 11.0 | 0.00 | 0.24 | 0.00 | 79 | 1012.2 |
| 20260831104529 | 73 | 210 | 7.0 | 11.0 | 0.00 | 0.24 | 0.00 | 79 | 1012.1 |
| 20260831104023 | 73 | 193 | 5.0 | 9.0 | 0.00 | 0.24 | 0.00 | 79 | 1012.2 |
| 20260831103518 | 73 | 205 | 7.0 | 10.0 | 0.00 | 0.24 | 0.00 | 79 | 1012.1 |
| 20260831103028 | 73 | 207 | 7.0 | 11.0 | 0.00 | 0.24 | 0.00 | 79 | 1012.2 |
| 20260831102518 | 73 | 208 | 7.0 | 11.0 | 0.00 | 0.24 | 0.00 | 79 | 1012.2 |
| 20260831102031 | 74 | 212 | 6.0 | 11.0 | 0.00 | 0.24 | 0.00 | 79 | 1012.2 |
| 20260831101518 | 74 | 236 | 7.0 | 11.0 | 0.00 | 0.24 | 0.00 | 78 | 1012.2 |
| 20260831101030 | 74 | 220 | 8.0 | 11.0 | 0.00 | 0.24 | 0.00 | 78 | 1012.2 |
| 20260831100526 | 74 | 204 | 7.0 | 12.0 | 0.00 | 0.24 | 0.00 | 78 | 1012.1 |
| 20260831100019 | 74 | 203 | 8.0 | 12.0 | 0.00 | 0.24 | 0.00 | 78 | 1012.1 |
| 20260831095534 | 74 | 241 | 8.0 | 13.0 | 0.00 | 0.24 | 0.00 | 78 | 1012.3 |
| 20260831095018 | 74 | 199 | 7.0 | 13.0 | 0.00 | 0.24 | 0.00 | 78 | 1012.3 |
| 20260831094557 | 74 | 223 | 8.0 | 15.0 | 0.00 | 0.24 | 0.00 | 78 | 1012.5 |
| 20260831094029 | 74 | 215 | 8.0 | 15.0 | 0.00 | 0.24 | 0.00 | 78 | 1012.5 |
| 20260831093519 | 74 | 225 | 9.0 | 12.0 | 0.00 | 0.24 | 0.00 | 78 | 1012.5 |
| 20260831093025 | 74 | 198 | 8.0 | 16.0 | 0.00 | 0.24 | 0.00 | 78 | 1012.5 |
| 20260831092530 | 74 | 212 | 8.0 | 15.0 | 0.00 | 0.24 | 0.00 | 79 | 1012.6 |
| 20260831092022 | 74 | 191 | 7.0 | 13.0 | 0.00 | 0.24 | 0.00 | 79 | 1012.6 |
| 20260831091531 | 74 | 222 | 6.0 | 10.0 | 0.00 | 0.24 | 0.00 | 79 | 1012.7 |
| 20260831091024 | 74 | 220 | 7.0 | 10.0 | 0.00 | 0.24 | 0.00 | 79 | 1012.9 |
| 20260831090519 | 74 | 222 | 7.0 | 10.0 | 0.00 | 0.24 | 0.00 | 78 | 1012.9 |
| 20260831090030 | 74 | 208 | 7.0 | 11.0 | 0.00 | 0.24 | 0.00 | 78 | 1013.0 |
| 20260831085526 | 74 | 208 | 7.0 | 11.0 | 0.00 | 0.24 | 0.00 | 78 | 1013.0 |
| 20260831085021 | 74 | 205 | 7.0 | 10.0 | 0.00 | 0.24 | 0.00 | 78 | 1012.9 |
| 20260831084527 | 74 | 152 | 6.0 | 11.0 | 0.00 | 0.24 | 0.00 | 78 | 1012.8 |
| 20260831084019 | 75 | 209 | 6.0 | 10.0 | 0.00 | 0.24 | 0.00 | 79 | 1012.8 |
| 20260831083517 | 75 | 192 | 7.0 | 11.0 | 0.00 | 0.24 | 0.00 | 78 | 1012.7 |
| 20260831083035 | 75 | 171 | 7.0 | 11.0 | 0.00 | 0.24 | 0.00 | 78 | 1012.8 |
| 20260831082528 | 75 | 212 | 6.0 | 10.0 | 0.00 | 0.24 | 0.00 | 78 | 1012.8 |
| 20260831082025 | 75 | 169 | 6.0 | 11.0 | 0.00 | 0.24 | 0.00 | 78 | 1012.8 |
| 20260831081518 | 75 | 200 | 6.0 | 10.0 | 0.00 | 0.24 | 0.00 | 78 | 1012.8 |
| 20260831081034 | 75 | 192 | 7.0 | 13.0 | 0.00 | 0.24 | 0.00 | 78 | 1012.8 |
| 20260831080536 | 75 | 168 | 8.0 | 13.0 | 0.00 | 0.24 | 0.00 | 78 | 1012.8 |
| 20260831080046 | 75 | 187 | 6.0 | 11.0 | 0.00 | 0.24 | 0.00 | 79 | 1012.8 |
| 20260831075538 | 74 | 212 | 7.0 | 15.0 | 0.00 | 0.24 | 0.00 | 79 | 1012.8 |
| 20260831075029 | 74 | 155 | 7.0 | 15.0 | 0.00 | 0.24 | 0.00 | 80 | 1012.9 |
| 20260831074518 | 74 | 207 | 7.0 | 15.0 | 0.00 | 0.24 | 0.00 | 81 | 1013.1 |
| 20260831074034 | 74 | 192 | 9.0 | 11.0 | 0.00 | 0.24 | 0.00 | 82 | 1013.0 |
| 20260831073530 | 73 | 198 | 7.0 | 10.0 | 0.00 | 0.24 | 0.00 | 83 | 1013.0 |
| 20260831073017 | 73 | 175 | 7.0 | 10.0 | 0.00 | 0.24 | 0.00 | 83 | 1013.1 |
| 20260831072526 | 73 | 200 | 5.0 | 10.0 | 0.00 | 0.24 | 0.00 | 84 | 1013.2 |
| 20260831072040 | 73 | 166 | 7.0 | 12.0 | 0.00 | 0.24 | 0.00 | 84 | 1013.3 |
| 20260831071518 | 73 | 184 | 6.0 | 12.0 | 0.00 | 0.24 | 0.00 | 85 | 1013.4 |
| 20260831071034 | 73 | 173 | 5.0 | 9.0 | 0.00 | 0.24 | 0.00 | 85 | 1013.5 |
| 20260831070531 | 73 | 178 | 6.0 | 9.0 | 0.00 | 0.24 | 0.00 | 85 | 1013.6 |
| 20260831070029 | 73 | 198 | 6.0 | 9.0 | 0.00 | 0.24 | 0.00 | 86 | 1013.7 |
| 20260831065525 | 73 | 202 | 5.0 | 8.0 | 0.00 | 0.24 | 0.00 | 86 | 1013.9 |
| 20260831065021 | 72 | 173 | 2.0 | 8.0 | 0.00 | 0.24 | 0.00 | 86 | 1013.9 |
| 20260831064529 | 72 | 156 | 5.0 | 8.0 | 0.00 | 0.24 | 0.00 | 86 | 1013.9 |
| 20260831064026 | 72 | 184 | 4.0 | 8.0 | 0.00 | 0.24 | 0.00 | 87 | 1014.0 |
| 20260831063519 | 72 | 162 | 3.0 | 8.0 | 0.00 | 0.24 | 0.00 | 87 | 1014.1 |
| 20260831062518 | 72 | 138 | 5.0 | 10.0 | 0.00 | 0.24 | 0.00 | 87 | 1014.2 |
| 20260831062034 | 72 | 167 | 3.0 | 10.0 | 0.00 | 0.24 | 0.00 | 87 | 1014.1 |
| 20260831061532 | 72 | 175 | 4.0 | 11.0 | 0.00 | 0.24 | 0.00 | 87 | 1014.3 |
| 20260831061046 | 72 | 166 | 3.0 | 10.0 | 0.00 | 0.24 | 0.00 | 87 | 1014.3 |
| 20260831060534 | 72 | 194 | 1.0 | 10.0 | 0.00 | 0.24 | 0.00 | 87 | 1014.4 |
| 20260831060033 | 72 | 160 | 4.0 | 9.0 | 0.00 | 0.28 | 0.00 | 87 | 1014.4 |
| 20260831055536 | 72 | 133 | 4.0 | 9.0 | 0.00 | 0.28 | 0.00 | 87 | 1014.6 |
| 20260831055030 | 72 | 185 | 4.0 | 8.0 | 0.00 | 0.28 | 0.00 | 88 | 1014.7 |
| 20260831054532 | 72 | 217 | 5.0 | 7.0 | 0.00 | 0.28 | 0.00 | 89 | 1014.8 |
| 20260831054025 | 72 | 190 | 4.0 | 9.0 | 0.00 | 0.28 | 0.00 | 90 | 1014.7 |
| 20260831053536 | 71 | 180 | 5.0 | 9.0 | 0.00 | 0.28 | 0.00 | 91 | 1014.7 |
| 20260831053028 | 71 | 180 | 5.0 | 8.0 | 0.00 | 0.28 | 0.00 | 91 | 1014.6 |
| 20260831052547 | 70 | 196 | 5.0 | 8.0 | 0.00 | 0.28 | 0.00 | 92 | 1014.6 |
| 20260831052018 | 70 | 213 | 4.0 | 7.0 | 0.00 | 0.28 | 0.00 | 92 | 1014.6 |
| 20260831051537 | 69 | 182 | 3.0 | 8.0 | 0.00 | 0.28 | 0.00 | 92 | 1014.6 |
| 20260831051029 | 70 | 201 | 2.0 | 5.0 | 0.00 | 0.28 | 0.00 | 91 | 1014.6 |
| 20260831050524 | 70 | 201 | 1.0 | 5.0 | 0.00 | 0.28 | 0.00 | 91 | 1014.7 |
| 20260831050027 | 70 | 187 | 3.0 | 6.0 | 0.00 | 0.28 | 0.28 | 92 | 1014.6 |
| 20260831045523 | 70 | 215 | 4.0 | 7.0 | 0.00 | 0.28 | 0.28 | 92 | 1014.6 |
| 20260831045018 | 69 | 217 | 5.0 | 7.0 | 0.00 | 0.28 | 0.28 | 92 | 1014.4 |
| 20260831044534 | 69 | 196 | 3.0 | 6.0 | 0.00 | 0.28 | 0.28 | 92 | 1014.3 |
| 20260831044017 | 69 | 210 | 4.0 | 6.0 | 0.00 | 0.28 | 0.28 | 92 | 1014.3 |
| 20260831043531 | 69 | 200 | 3.0 | 6.0 | 0.00 | 0.28 | 0.28 | 92 | 1014.5 |
| 20260831043019 | 70 | 193 | 3.0 | 5.0 | 0.00 | 0.28 | 0.28 | 92 | 1014.5 |
| 20260831042534 | 70 | 198 | 3.0 | 6.0 | 0.00 | 0.28 | 0.28 | 92 | 1014.4 |
| 20260831042058 | 70 | 197 | 3.0 | 6.0 | 0.00 | 0.28 | 0.28 | 92 | 1014.3 |
| 20260831041539 | 70 | 207 | 3.0 | 5.0 | 0.00 | 0.28 | 0.28 | 92 | 1014.3 |
| 20260831040523 | 70 | 215 | 3.0 | 8.0 | 0.00 | 0.28 | 0.28 | 92 | 1014.2 |
| 20260831040024 | 70 | 215 | 5.0 | 8.0 | 0.00 | 0.28 | 0.28 | 93 | 1014.2 |
| 20260831035532 | 70 | 196 | 4.0 | 8.0 | 0.00 | 0.28 | 0.28 | 93 | 1014.2 |
| 20260831035056 | 70 | 211 | 4.0 | 8.0 | 0.00 | 0.28 | 0.28 | 93 | 1014.2 |
| 20260831034533 | 70 | 182 | 4.0 | 6.0 | 0.00 | 0.28 | 0.28 | 93 | 1014.1 |
| 20260831034028 | 70 | 177 | 3.0 | 7.0 | 0.00 | 0.28 | 0.28 | 93 | 1014.1 |
| 20260831033523 | 70 | 194 | 5.0 | 7.0 | 0.00 | 0.28 | 0.28 | 93 | 1014.2 |
| 20260831033022 | 70 | 215 | 5.0 | 8.0 | 0.00 | 0.28 | 0.28 | 94 | 1014.2 |
| 20260831032531 | 70 | 224 | 4.0 | 8.0 | 0.00 | 0.28 | 0.28 | 94 | 1014.2 |
| 20260831032037 | 70 | 205 | 5.0 | 8.0 | 0.00 | 0.28 | 0.28 | 94 | 1014.2 |
| 20260831031552 | 70 | 202 | 5.0 | 9.0 | 0.00 | 0.28 | 0.28 | 94 | 1014.4 |
| 20260831031026 | 70 | 205 | 5.0 | 9.0 | 0.00 | 0.28 | 0.28 | 94 | 1014.3 |
| 20260831030521 | 70 | 202 | 6.0 | 8.0 | 0.00 | 0.28 | 0.28 | 94 | 1014.4 |
| 20260831030030 | 70 | 208 | 5.0 | 7.0 | 0.02 | 0.28 | 0.28 | 94 | 1014.4 |
| 20260831025524 | 70 | 218 | 4.0 | 8.0 | 0.03 | 0.28 | 0.28 | 94 | 1014.4 |
| 20260831025021 | 70 | 229 | 4.0 | 8.0 | 0.06 | 0.28 | 0.28 | 94 | 1014.5 |
| 20260831024558 | 70 | 246 | 2.0 | 4.0 | 0.07 | 0.28 | 0.28 | 94 | 1014.4 |
| 20260831024049 | 70 | 246 | 1.0 | 4.0 | 0.08 | 0.28 | 0.28 | 94 | 1014.5 |
| 20260831023519 | 70 | 246 | 2.0 | 4.0 | 0.09 | 0.28 | 0.28 | 94 | 1014.5 |
| 20260831023016 | 70 | 246 | 0.0 | 3.0 | 0.09 | 0.28 | 0.28 | 94 | 1014.6 |
| 20260831022530 | 70 | 246 | 1.0 | 3.0 | 0.10 | 0.28 | 0.28 | 94 | 1014.7 |
| 20260831022036 | 70 | 246 | 0.0 | 3.0 | 0.10 | 0.28 | 0.28 | 94 | 1014.6 |
| 20260831021545 | 70 | 167 | 1.0 | 10.0 | 0.10 | 0.28 | 0.28 | 94 | 1014.5 |
| 20260831021021 | 70 | 167 | 1.0 | 10.0 | 0.10 | 0.28 | 0.28 | 94 | 1014.1 |
| 20260831020529 | 70 | 188 | 4.0 | 10.0 | 0.10 | 0.28 | 0.28 | 94 | 1014.1 |
| 20260831020030 | 70 | 230 | 6.0 | 11.0 | 0.08 | 0.26 | 0.26 | 94 | 1014.2 |
| 20260831015524 | 70 | 140 | 5.0 | 11.0 | 0.07 | 0.25 | 0.25 | 93 | 1013.9 |
| 20260831015020 | 70 | 240 | 7.0 | 11.0 | 0.04 | 0.22 | 0.22 | 93 | 1014.2 |
| 20260831014528 | 70 | 211 | 5.0 | 8.0 | 0.03 | 0.21 | 0.21 | 93 | 1014.3 |
| 20260831014022 | 70 | 157 | 1.0 | 7.0 | 0.02 | 0.20 | 0.20 | 93 | 1014.3 |
| 20260831013553 | 70 | 184 | 3.0 | 7.0 | 0.01 | 0.19 | 0.19 | 93 | 1014.6 |
| 20260831013033 | 70 | 255 | 2.0 | 4.0 | 0.01 | 0.19 | 0.19 | 93 | 1015.1 |
| 20260831012521 | 70 | 286 | 1.0 | 4.0 | 0.01 | 0.18 | 0.18 | 93 | 1014.8 |
| 20260831012021 | 70 | 150 | 1.0 | 6.0 | 0.01 | 0.18 | 0.18 | 93 | 1014.3 |
| 20260831011516 | 71 | 124 | 3.0 | 7.0 | 0.01 | 0.18 | 0.18 | 93 | 1014.5 |
| 20260831011033 | 71 | 103 | 3.0 | 7.0 | 0.01 | 0.18 | 0.18 | 92 | 1014.4 |
| 20260831010558 | 71 | 148 | 1.0 | 5.0 | 0.01 | 0.18 | 0.18 | 92 | 1014.5 |
| 20260831010020 | 71 | 186 | 2.0 | 7.0 | 0.01 | 0.18 | 0.18 | 92 | 1014.3 |
| 20260831005535 | 71 | 149 | 4.0 | 7.0 | 0.01 | 0.18 | 0.18 | 92 | 1014.3 |
| 20260831005023 | 71 | 130 | 4.0 | 7.0 | 0.01 | 0.18 | 0.18 | 92 | 1014.0 |
| 20260831004549 | 71 | 127 | 4.0 | 7.0 | 0.01 | 0.18 | 0.18 | 92 | 1014.2 |
| 20260831004023 | 71 | 161 | 1.0 | 9.0 | 0.01 | 0.18 | 0.18 | 91 | 1014.4 |
| 20260831003519 | 71 | 194 | 2.0 | 4.0 | 0.01 | 0.18 | 0.18 | 91 | 1014.9 |
| 20260831003034 | 71 | 209 | 2.0 | 7.0 | 0.00 | 0.17 | 0.17 | 91 | 1015.0 |
| 20260831002526 | 71 | 271 | 2.0 | 10.0 | 0.00 | 0.17 | 0.17 | 91 | 1015.0 |
| 20260831002032 | 71 | 194 | 4.0 | 10.0 | 0.00 | 0.17 | 0.17 | 91 | 1014.7 |
| 20260831001530 | 71 | 215 | 5.0 | 13.0 | 0.00 | 0.17 | 0.17 | 91 | 1014.5 |
| 20260831001025 | 71 | 198 | 8.0 | 13.0 | 0.00 | 0.17 | 0.17 | 91 | 1014.0 |
| 20260831000537 | 71 | 205 | 8.0 | 13.0 | 0.00 | 0.17 | 0.17 | 91 | 1013.8 |
| 20260831000017 | 71 | 190 | 9.0 | 12.0 | 0.00 | 0.17 | 0.17 | 91 | 1013.9 |
| 20260830235529 | 71 | 182 | 6.0 | 12.0 | 0.00 | 0.17 | 0.17 | 91 | 1014.0 |
| 20260830235039 | 71 | 182 | 8.0 | 11.0 | 0.00 | 0.17 | 0.17 | 91 | 1014.1 |
| 20260830234537 | 71 | 199 | 6.0 | 12.0 | 0.00 | 0.17 | 0.17 | 91 | 1014.0 |
| 20260830234031 | 71 | 182 | 8.0 | 15.0 | 0.00 | 0.17 | 0.17 | 90 | 1013.8 |
| 20260830233544 | 71 | 180 | 9.0 | 15.0 | 0.00 | 0.17 | 0.17 | 90 | 1014.2 |
| 20260830233027 | 71 | 200 | 9.0 | 13.0 | 0.00 | 0.17 | 0.17 | 90 | 1014.3 |
| 20260830232521 | 71 | 214 | 7.0 | 10.0 | 0.00 | 0.17 | 0.17 | 90 | 1014.4 |
| 20260830232033 | 72 | 195 | 6.0 | 10.0 | 0.00 | 0.17 | 0.17 | 90 | 1014.3 |
| 20260830231532 | 72 | 155 | 6.0 | 11.0 | 0.00 | 0.17 | 0.17 | 90 | 1014.3 |
| 20260830231023 | 72 | 188 | 7.0 | 10.0 | 0.00 | 0.17 | 0.17 | 90 | 1014.2 |
| 20260830230528 | 72 | 227 | 6.0 | 12.0 | 0.00 | 0.17 | 0.17 | 90 | 1014.3 |
| 20260830230017 | 72 | 223 | 7.0 | 14.0 | 0.00 | 0.17 | 0.17 | 90 | 1014.4 |
| 20260830225532 | 72 | 204 | 8.0 | 15.0 | 0.00 | 0.17 | 0.17 | 90 | 1014.2 |
| 20260830225024 | 72 | 190 | 8.0 | 15.0 | 0.00 | 0.17 | 0.17 | 90 | 1014.4 |
| 20260830224534 | 72 | 171 | 7.0 | 12.0 | 0.00 | 0.17 | 0.17 | 90 | 1014.2 |
| 20260830224024 | 72 | 213 | 8.0 | 12.0 | 0.00 | 0.17 | 0.17 | 91 | 1014.1 |
| 20260830223519 | 72 | 200 | 5.0 | 10.0 | 0.00 | 0.17 | 0.17 | 91 | 1013.8 |
| 20260830223048 | 72 | 195 | 6.0 | 17.0 | 0.00 | 0.17 | 0.17 | 91 | 1013.9 |
| 20260830222520 | 72 | 215 | 8.0 | 17.0 | 0.00 | 0.17 | 0.17 | 91 | 1013.9 |
| 20260830222017 | 72 | 200 | 6.0 | 15.0 | 0.00 | 0.17 | 0.17 | 91 | 1013.9 |
| 20260830221548 | 72 | 217 | 8.0 | 15.0 | 0.00 | 0.17 | 0.17 | 91 | 1013.8 |
| 20260830221021 | 72 | 222 | 10.0 | 13.0 | 0.00 | 0.17 | 0.17 | 91 | 1013.8 |
| 20260830220517 | 72 | 157 | 7.0 | 18.0 | 0.00 | 0.17 | 0.17 | 91 | 1013.7 |
| 20260830220035 | 72 | 223 | 8.0 | 18.0 | 0.00 | 0.17 | 0.17 | 91 | 1013.7 |
| 20260830215529 | 72 | 201 | 7.0 | 16.0 | 0.00 | 0.17 | 0.17 | 91 | 1013.7 |
| 20260830215023 | 72 | 172 | 8.0 | 16.0 | 0.00 | 0.17 | 0.17 | 91 | 1013.5 |
| 20260830214518 | 72 | 220 | 8.0 | 14.0 | 0.00 | 0.17 | 0.17 | 91 | 1013.6 |
| 20260830214035 | 72 | 192 | 7.0 | 14.0 | 0.00 | 0.17 | 0.17 | 91 | 1013.7 |
| 20260830213519 | 72 | 201 | 6.0 | 11.0 | 0.00 | 0.17 | 0.17 | 91 | 1013.7 |
| 20260830213037 | 72 | 210 | 7.0 | 11.0 | 0.00 | 0.17 | 0.17 | 91 | 1013.8 |
| 20260830212531 | 72 | 178 | 6.0 | 9.0 | 0.00 | 0.17 | 0.17 | 91 | 1013.7 |
| 20260830212024 | 72 | 178 | 6.0 | 10.0 | 0.00 | 0.17 | 0.17 | 90 | 1013.6 |
| 20260830211518 | 72 | 174 | 6.0 | 9.0 | 0.00 | 0.17 | 0.17 | 90 | 1013.7 |
| 20260830211033 | 72 | 211 | 5.0 | 10.0 | 0.00 | 0.17 | 0.17 | 90 | 1013.5 |
| 20260830210518 | 72 | 202 | 6.0 | 8.0 | 0.00 | 0.17 | 0.17 | 90 | 1013.6 |
| 20260830210041 | 72 | 236 | 4.0 | 8.0 | 0.01 | 0.19 | 0.17 | 90 | 1013.8 |
| 20260830205530 | 72 | 198 | 5.0 | 11.0 | 0.01 | 0.19 | 0.17 | 90 | 1013.9 |
| 20260830205020 | 72 | 192 | 5.0 | 13.0 | 0.01 | 0.19 | 0.17 | 90 | 1013.7 |